Location: Borojevi?i
(45.0486°N, 16.2297°E)
Time: 05:33:30
(UTC+00:00)

Cosmos 2219 Rocket - Pass Details

Date: 08 August 2020
Orbit: 826 x 848 km, 71.0° (Epoch: 19 September)

Event Time Altitude Azimuth Distance (km) Brightness Sun altitude
Rises 23:31:47 0° 330° (NNW) 3,416 6.1 -28.8°
Reaches altitude 10° 23:34:17 10° 325° (NW) 2,478 5.2 -28.7°
Enters shadow 23:38:43 45° 286° (WNW) 1,144 2.8 -28.6°
